Year,Month,Day,Hour,Minute,Value (Times are PST for temperature in C)
2013,04,23,00,00,6.50
2013,04,23,00,01,6.50
2013,04,23,00,02,6.50
2013,04,23,00,03,6.50
2013,04,23,00,04,6.40
2013,04,23,00,05,6.40
2013,04,23,00,06,6.40
2013,04,23,00,07,6.40
2013,04,23,00,08,6.40
2013,04,23,00,09,6.30
2013,04,23,00,10,6.30
2013,04,23,00,11,6.30
2013,04,23,00,12,6.40
2013,04,23,00,13,6.40
2013,04,23,00,14,6.40
2013,04,23,00,15,6.40
2013,04,23,00,16,6.40
2013,04,23,00,17,6.40
2013,04,23,00,18,6.40
2013,04,23,00,19,6.40
2013,04,23,00,20,6.40
2013,04,23,00,21,6.40
2013,04,23,00,22,6.40
2013,04,23,00,23,6.40
2013,04,23,00,24,6.40
2013,04,23,00,25,6.30
2013,04,23,00,26,6.30
2013,04,23,00,27,6.30
2013,04,23,00,28,6.30
2013,04,23,00,29,6.30
2013,04,23,00,30,6.40
2013,04,23,00,31,6.40
2013,04,23,00,32,6.50
2013,04,23,00,33,6.50
2013,04,23,00,34,6.60
2013,04,23,00,35,6.60
2013,04,23,00,36,6.60
2013,04,23,00,37,6.70
2013,04,23,00,38,6.70
2013,04,23,00,39,6.70
2013,04,23,00,40,6.70
2013,04,23,00,41,6.70
2013,04,23,00,42,6.70
2013,04,23,00,43,6.70
2013,04,23,00,44,6.70
2013,04,23,00,45,6.70
2013,04,23,00,46,6.70
2013,04,23,00,47,6.60
2013,04,23,00,48,6.60
2013,04,23,00,49,6.60
2013,04,23,00,50,6.50
2013,04,23,00,51,6.50
2013,04,23,00,52,6.50
2013,04,23,00,53,6.40
2013,04,23,00,54,6.40
2013,04,23,00,55,6.40
2013,04,23,00,56,6.30
2013,04,23,00,57,6.30
2013,04,23,00,58,6.30
2013,04,23,00,59,6.30
2013,04,23,01,00,6.30
2013,04,23,01,01,6.20
2013,04,23,01,02,6.20
2013,04,23,01,03,6.20
2013,04,23,01,04,6.20
2013,04,23,01,05,6.20
2013,04,23,01,06,6.20
2013,04,23,01,07,6.20
2013,04,23,01,08,6.10
2013,04,23,01,09,6.10
2013,04,23,01,10,6.10
2013,04,23,01,11,6.10
2013,04,23,01,12,6.10
2013,04,23,01,13,6.00
2013,04,23,01,14,6.00
2013,04,23,01,15,6.00
2013,04,23,01,16,5.90
2013,04,23,01,17,5.90
2013,04,23,01,18,5.90
2013,04,23,01,19,5.90
2013,04,23,01,20,5.80
2013,04,23,01,21,5.80
2013,04,23,01,22,5.80
2013,04,23,01,23,5.80
2013,04,23,01,24,5.80
2013,04,23,01,25,5.70
2013,04,23,01,26,5.70
2013,04,23,01,27,5.70
2013,04,23,01,28,5.70
2013,04,23,01,29,5.70
2013,04,23,01,30,5.70
2013,04,23,01,31,5.70
2013,04,23,01,32,5.70
2013,04,23,01,33,5.70
2013,04,23,01,34,5.60
2013,04,23,01,35,5.70
2013,04,23,01,36,5.60
2013,04,23,01,37,5.70
2013,04,23,01,38,5.70
2013,04,23,01,39,5.70
2013,04,23,01,40,5.60
2013,04,23,01,41,5.70
2013,04,23,01,42,5.70
2013,04,23,01,43,5.70
2013,04,23,01,44,5.70
2013,04,23,01,45,5.60
2013,04,23,01,46,5.60
2013,04,23,01,47,5.60
2013,04,23,01,48,5.60
2013,04,23,01,49,5.60
2013,04,23,01,50,5.60
2013,04,23,01,51,5.50
2013,04,23,01,52,5.50
2013,04,23,01,53,5.50
2013,04,23,01,54,5.40
2013,04,23,01,55,5.40
2013,04,23,01,56,5.40
2013,04,23,01,57,5.40
2013,04,23,01,58,5.40
2013,04,23,01,59,5.40
2013,04,23,02,00,5.40
2013,04,23,02,01,5.50
2013,04,23,02,02,5.50
2013,04,23,02,03,5.50
2013,04,23,02,04,5.60
2013,04,23,02,05,5.60
2013,04,23,02,06,5.60
2013,04,23,02,07,5.60
2013,04,23,02,08,5.60
2013,04,23,02,09,5.60
2013,04,23,02,10,5.60
2013,04,23,02,11,5.50
2013,04,23,02,12,5.50
2013,04,23,02,13,5.50
2013,04,23,02,14,5.40
2013,04,23,02,15,5.40
2013,04,23,02,16,5.40
2013,04,23,02,17,5.30
2013,04,23,02,18,5.30
2013,04,23,02,19,5.30
2013,04,23,02,20,5.30
2013,04,23,02,21,5.20
2013,04,23,02,22,5.20
2013,04,23,02,23,5.20
2013,04,23,02,24,5.20
2013,04,23,02,25,5.10
2013,04,23,02,26,5.10
2013,04,23,02,27,5.10
2013,04,23,02,28,5.10
2013,04,23,02,29,5.10
2013,04,23,02,30,5.00
2013,04,23,02,31,5.00
2013,04,23,02,32,5.00
2013,04,23,02,33,5.00
2013,04,23,02,34,4.90
2013,04,23,02,35,4.90
2013,04,23,02,36,4.90
2013,04,23,02,37,4.90
2013,04,23,02,38,4.90
2013,04,23,02,39,4.90
2013,04,23,02,40,4.90
2013,04,23,02,41,4.90
2013,04,23,02,42,4.90
2013,04,23,02,43,4.90
2013,04,23,02,44,4.80
2013,04,23,02,45,4.80
2013,04,23,02,46,4.80
2013,04,23,02,47,4.80
2013,04,23,02,48,4.80
2013,04,23,02,49,4.80
2013,04,23,02,50,4.80
2013,04,23,02,51,4.80
2013,04,23,02,52,4.80
2013,04,23,02,53,4.80
2013,04,23,02,54,4.80
2013,04,23,02,55,4.80
2013,04,23,02,56,4.80
2013,04,23,02,57,4.80
2013,04,23,02,58,4.80
2013,04,23,02,59,4.80
2013,04,23,03,00,4.80
2013,04,23,03,01,4.80
2013,04,23,03,02,4.70
2013,04,23,03,03,4.70
2013,04,23,03,04,4.70
2013,04,23,03,05,4.70
2013,04,23,03,06,4.70
2013,04,23,03,07,4.70
2013,04,23,03,08,4.60
2013,04,23,03,09,4.60
2013,04,23,03,10,4.60
2013,04,23,03,11,4.60
2013,04,23,03,12,4.60
2013,04,23,03,13,4.50
2013,04,23,03,14,4.50
2013,04,23,03,15,4.50
2013,04,23,03,16,4.40
2013,04,23,03,17,4.40
2013,04,23,03,18,4.40
2013,04,23,03,19,4.40
2013,04,23,03,20,4.40
2013,04,23,03,21,4.40
2013,04,23,03,22,4.40
2013,04,23,03,23,4.40
2013,04,23,03,24,4.30
2013,04,23,03,25,4.30
2013,04,23,03,26,4.30
2013,04,23,03,27,4.30
2013,04,23,03,28,4.30
2013,04,23,03,29,4.30
2013,04,23,03,30,4.30
2013,04,23,03,31,4.20
2013,04,23,03,32,4.20
2013,04,23,03,33,4.20
2013,04,23,03,34,4.20
2013,04,23,03,35,4.10
2013,04,23,03,36,4.10
2013,04,23,03,37,4.10
2013,04,23,03,38,4.10
2013,04,23,03,39,4.10
2013,04,23,03,40,4.10
2013,04,23,03,41,4.00
2013,04,23,03,42,4.00
2013,04,23,03,43,4.00
2013,04,23,03,44,4.00
2013,04,23,03,45,4.00
2013,04,23,03,46,3.90
2013,04,23,03,47,3.90
2013,04,23,03,48,3.90
2013,04,23,03,49,3.90
2013,04,23,03,50,3.90
2013,04,23,03,51,3.90
2013,04,23,03,52,3.90
2013,04,23,03,53,3.90
2013,04,23,03,54,3.90
2013,04,23,03,55,3.90
2013,04,23,03,56,3.90
2013,04,23,03,57,3.90
2013,04,23,03,58,3.90
2013,04,23,03,59,3.90
2013,04,23,04,00,3.90
2013,04,23,04,01,3.90
2013,04,23,04,02,3.90
2013,04,23,04,03,3.90
2013,04,23,04,04,3.80
2013,04,23,04,05,3.80
2013,04,23,04,06,3.80
2013,04,23,04,07,3.80
2013,04,23,04,08,3.80
2013,04,23,04,09,3.80
2013,04,23,04,10,3.80
2013,04,23,04,11,3.80
2013,04,23,04,12,3.70
2013,04,23,04,13,3.70
2013,04,23,04,14,3.70
2013,04,23,04,15,3.70
2013,04,23,04,16,3.70
2013,04,23,04,17,3.70
2013,04,23,04,18,3.70
2013,04,23,04,19,3.70
2013,04,23,04,20,3.70
2013,04,23,04,21,3.70
2013,04,23,04,22,3.70
2013,04,23,04,23,3.80
2013,04,23,04,24,3.80
2013,04,23,04,25,3.80
2013,04,23,04,26,3.80
2013,04,23,04,27,3.80
2013,04,23,04,28,3.80
2013,04,23,04,29,3.80
2013,04,23,04,30,3.80
2013,04,23,04,31,3.80
2013,04,23,04,32,3.80
2013,04,23,04,33,3.80
2013,04,23,04,34,3.80
2013,04,23,04,35,3.80
2013,04,23,04,36,3.80
2013,04,23,04,37,3.80
2013,04,23,04,38,3.80
2013,04,23,04,39,3.80
2013,04,23,04,40,3.80
2013,04,23,04,41,3.70
2013,04,23,04,42,3.70
2013,04,23,04,43,3.70
2013,04,23,04,44,3.70
2013,04,23,04,45,3.70
2013,04,23,04,46,3.70
2013,04,23,04,47,3.70
2013,04,23,04,48,3.70
2013,04,23,04,49,3.60
2013,04,23,04,50,3.60
2013,04,23,04,51,3.60
2013,04,23,04,52,3.60
2013,04,23,04,53,3.60
2013,04,23,04,54,3.60
2013,04,23,04,55,3.60
2013,04,23,04,56,3.60
2013,04,23,04,57,3.50
2013,04,23,04,58,3.50
2013,04,23,04,59,3.50
2013,04,23,05,00,3.50
2013,04,23,05,01,3.50
2013,04,23,05,02,3.50
2013,04,23,05,03,3.50
2013,04,23,05,04,3.50
2013,04,23,05,05,3.50
2013,04,23,05,06,3.50
2013,04,23,05,07,3.60
2013,04,23,05,08,3.60
2013,04,23,05,09,3.70
2013,04,23,05,10,3.80
2013,04,23,05,11,3.90
2013,04,23,05,12,4.00
2013,04,23,05,13,4.00
2013,04,23,05,14,4.10
2013,04,23,05,15,4.10
2013,04,23,05,16,4.20
2013,04,23,05,17,4.20
2013,04,23,05,18,4.20
2013,04,23,05,19,4.30
2013,04,23,05,20,4.30
2013,04,23,05,21,4.30
2013,04,23,05,22,4.20
2013,04,23,05,23,4.20
2013,04,23,05,24,4.20
2013,04,23,05,25,4.20
2013,04,23,05,26,4.10
2013,04,23,05,27,4.10
2013,04,23,05,28,4.10
2013,04,23,05,29,4.00
2013,04,23,05,30,4.00
2013,04,23,05,31,4.00
2013,04,23,05,32,4.00
2013,04,23,05,33,4.00
2013,04,23,05,34,3.90
2013,04,23,05,35,3.90
2013,04,23,05,36,3.90
2013,04,23,05,37,3.90
2013,04,23,05,38,3.90
2013,04,23,05,39,3.90
2013,04,23,05,40,3.90
2013,04,23,05,41,3.80
2013,04,23,05,42,3.80
2013,04,23,05,43,3.80
2013,04,23,05,44,3.80
2013,04,23,05,45,3.80
2013,04,23,05,46,3.80
2013,04,23,05,47,3.80
2013,04,23,05,48,3.80
2013,04,23,05,49,3.80
2013,04,23,05,50,3.70
2013,04,23,05,51,3.70
2013,04,23,05,52,3.70
2013,04,23,05,53,3.70
2013,04,23,05,54,3.70
2013,04,23,05,55,3.70
2013,04,23,05,56,3.70
2013,04,23,05,57,3.80
2013,04,23,05,58,3.80
2013,04,23,05,59,3.80
2013,04,23,06,00,3.80
2013,04,23,06,01,3.80
2013,04,23,06,02,3.80
2013,04,23,06,03,3.80
2013,04,23,06,04,3.90
2013,04,23,06,05,3.90
2013,04,23,06,06,3.90
2013,04,23,06,07,3.90
2013,04,23,06,08,3.90
2013,04,23,06,09,3.90
2013,04,23,06,10,3.90
2013,04,23,06,11,3.90
2013,04,23,06,12,3.90
2013,04,23,06,13,3.90
2013,04,23,06,14,3.90
2013,04,23,06,15,3.90
2013,04,23,06,16,4.00
2013,04,23,06,17,4.00
2013,04,23,06,18,4.00
2013,04,23,06,19,4.00
2013,04,23,06,20,4.00
2013,04,23,06,21,4.00
2013,04,23,06,22,4.10
2013,04,23,06,23,4.10
2013,04,23,06,24,4.10
2013,04,23,06,25,4.10
2013,04,23,06,26,4.10
2013,04,23,06,27,4.10
2013,04,23,06,28,4.10
2013,04,23,06,29,4.10
2013,04,23,06,30,4.20
2013,04,23,06,31,4.20
2013,04,23,06,32,4.20
2013,04,23,06,33,4.20
2013,04,23,06,34,4.20
2013,04,23,06,35,4.20
2013,04,23,06,36,4.20
2013,04,23,06,37,4.20
2013,04,23,06,38,4.20
2013,04,23,06,39,4.20
2013,04,23,06,40,4.20
2013,04,23,06,41,4.20
2013,04,23,06,42,4.20
2013,04,23,06,43,4.20
2013,04,23,06,44,4.20
2013,04,23,06,45,4.20
2013,04,23,06,46,4.20
2013,04,23,06,47,4.20
2013,04,23,06,48,4.30
2013,04,23,06,49,4.30
2013,04,23,06,50,4.30
2013,04,23,06,51,4.30
2013,04,23,06,52,4.30
2013,04,23,06,53,4.30
2013,04,23,06,54,4.30
2013,04,23,06,55,4.40
2013,04,23,06,56,4.40
2013,04,23,06,57,4.40
2013,04,23,06,58,4.50
2013,04,23,06,59,4.50
2013,04,23,07,00,4.60
2013,04,23,07,01,4.60
2013,04,23,07,02,4.60
2013,04,23,07,03,4.70
2013,04,23,07,04,4.70
2013,04,23,07,05,4.70
2013,04,23,07,06,4.70
2013,04,23,07,07,4.80
2013,04,23,07,08,4.80
2013,04,23,07,09,4.80
2013,04,23,07,10,4.80
2013,04,23,07,11,4.80
2013,04,23,07,12,4.80
2013,04,23,07,13,4.80
2013,04,23,07,14,4.90
2013,04,23,07,15,4.90
2013,04,23,07,16,4.90
2013,04,23,07,17,4.90
2013,04,23,07,18,4.90
2013,04,23,07,19,5.00
2013,04,23,07,20,5.00
2013,04,23,07,21,5.10
2013,04,23,07,22,5.10
2013,04,23,07,23,5.10
2013,04,23,07,24,5.10
2013,04,23,07,25,5.10
2013,04,23,07,26,5.10
2013,04,23,07,27,5.20
2013,04,23,07,28,5.20
2013,04,23,07,29,5.20
2013,04,23,07,30,5.20
2013,04,23,07,31,5.20
2013,04,23,07,32,5.20
2013,04,23,07,33,5.20
2013,04,23,07,34,5.30
2013,04,23,07,35,5.30
2013,04,23,07,36,5.30
2013,04,23,07,37,5.30
2013,04,23,07,38,5.30
2013,04,23,07,39,5.30
2013,04,23,07,40,5.30
2013,04,23,07,41,5.40
2013,04,23,07,42,5.40
2013,04,23,07,43,5.40
2013,04,23,07,44,5.40
2013,04,23,07,45,5.50
2013,04,23,07,46,5.50
2013,04,23,07,47,5.60
2013,04,23,07,48,5.60
2013,04,23,07,49,5.70
2013,04,23,07,50,5.70
2013,04,23,07,51,5.70
2013,04,23,07,52,5.80
2013,04,23,07,53,5.80
2013,04,23,07,54,5.80
2013,04,23,07,55,5.90
2013,04,23,07,56,5.90
2013,04,23,07,57,6.00
2013,04,23,07,58,6.10
2013,04,23,07,59,6.20
2013,04,23,08,00,6.30
2013,04,23,08,01,6.40
2013,04,23,08,02,6.50
2013,04,23,08,03,6.60
2013,04,23,08,04,6.70
2013,04,23,08,05,6.80
2013,04,23,08,06,6.80
2013,04,23,08,07,7.00
2013,04,23,08,08,7.10
2013,04,23,08,09,7.20
2013,04,23,08,10,7.20
2013,04,23,08,11,7.30
2013,04,23,08,12,7.30
2013,04,23,08,13,7.40
2013,04,23,08,14,7.40
2013,04,23,08,15,7.50
2013,04,23,08,16,7.60
2013,04,23,08,17,7.60
2013,04,23,08,18,7.70
2013,04,23,08,19,7.70
2013,04,23,08,20,7.80
2013,04,23,08,21,7.80
2013,04,23,08,22,7.90
2013,04,23,08,23,7.90
2013,04,23,08,24,8.00
2013,04,23,08,25,8.00
2013,04,23,08,26,8.10
2013,04,23,08,27,8.10
2013,04,23,08,28,8.20
2013,04,23,08,29,8.20
2013,04,23,08,30,8.20
2013,04,23,08,31,8.20
2013,04,23,08,32,8.20
2013,04,23,08,33,8.30
2013,04,23,08,34,8.30
2013,04,23,08,35,8.30
2013,04,23,08,36,8.30
2013,04,23,08,37,8.30
2013,04,23,08,38,8.30
2013,04,23,08,39,8.30
2013,04,23,08,40,8.30
2013,04,23,08,41,8.30
2013,04,23,08,42,8.40
2013,04,23,08,43,8.40
2013,04,23,08,44,8.40
2013,04,23,08,45,8.40
2013,04,23,08,46,8.40
2013,04,23,08,47,8.50
2013,04,23,08,48,8.50
2013,04,23,08,49,8.50
2013,04,23,08,50,8.50
2013,04,23,08,51,8.50
2013,04,23,08,52,8.50
2013,04,23,08,53,8.50
2013,04,23,08,54,8.50
2013,04,23,08,55,8.50
2013,04,23,08,56,8.50
2013,04,23,08,57,8.60
2013,04,23,08,58,8.60
2013,04,23,08,59,8.60
2013,04,23,09,00,8.60
2013,04,23,09,01,8.60
2013,04,23,09,02,8.60
2013,04,23,09,03,8.60
2013,04,23,09,04,8.60
2013,04,23,09,05,8.60
2013,04,23,09,06,8.60
2013,04,23,09,07,8.60
2013,04,23,09,08,8.60
2013,04,23,09,09,8.60
2013,04,23,09,10,8.60
2013,04,23,09,11,8.60
2013,04,23,09,12,8.60
2013,04,23,09,13,8.60
2013,04,23,09,14,8.60
2013,04,23,09,15,8.60
2013,04,23,09,16,8.70
2013,04,23,09,17,8.70
2013,04,23,09,18,8.70
2013,04,23,09,19,8.70
2013,04,23,09,20,8.80
2013,04,23,09,21,8.80
2013,04,23,09,22,8.80
2013,04,23,09,23,8.80
2013,04,23,09,24,8.80
2013,04,23,09,25,8.90
2013,04,23,09,26,8.90
2013,04,23,09,27,8.90
2013,04,23,09,28,9.00
2013,04,23,09,29,9.00
2013,04,23,09,30,9.10
2013,04,23,09,31,9.20
2013,04,23,09,32,9.30
2013,04,23,09,33,9.30
2013,04,23,09,34,9.40
2013,04,23,09,35,9.50
2013,04,23,09,36,9.50
2013,04,23,09,37,9.60
2013,04,23,09,38,9.60
2013,04,23,09,39,9.70
2013,04,23,09,40,9.80
2013,04,23,09,41,9.80
2013,04,23,09,42,9.80
2013,04,23,09,43,9.90
2013,04,23,09,44,9.90
2013,04,23,09,45,10.00
2013,04,23,09,46,10.10
2013,04,23,09,47,10.20
2013,04,23,09,48,10.30
2013,04,23,09,49,10.30
2013,04,23,09,50,10.40
2013,04,23,09,51,10.50
2013,04,23,09,52,10.50
2013,04,23,09,53,10.60
2013,04,23,09,54,10.60
2013,04,23,09,55,10.60
2013,04,23,09,56,10.60
2013,04,23,09,57,10.60
2013,04,23,09,58,10.60
2013,04,23,09,59,10.60
2013,04,23,10,00,10.60
2013,04,23,10,01,10.60
2013,04,23,10,02,10.60
2013,04,23,10,03,10.70
2013,04,23,10,04,10.60
2013,04,23,10,05,10.60
2013,04,23,10,06,10.60
2013,04,23,10,07,10.50
2013,04,23,10,08,10.40
2013,04,23,10,09,10.30
2013,04,23,10,10,10.30
2013,04,23,10,11,10.30
2013,04,23,10,12,10.30
2013,04,23,10,13,10.30
2013,04,23,10,14,10.30
2013,04,23,10,15,10.30
2013,04,23,10,16,10.30
2013,04,23,10,17,10.40
2013,04,23,10,18,10.40
2013,04,23,10,19,10.40
2013,04,23,10,20,10.40
2013,04,23,10,21,10.40
2013,04,23,10,22,10.30
2013,04,23,10,23,10.30
2013,04,23,10,24,10.20
2013,04,23,10,25,10.20
2013,04,23,10,26,10.20
2013,04,23,10,27,10.30
2013,04,23,10,28,10.30
2013,04,23,10,29,10.30
2013,04,23,10,30,10.30
2013,04,23,10,31,10.30
2013,04,23,10,32,10.30
2013,04,23,10,33,10.20
2013,04,23,10,34,10.20
2013,04,23,10,35,10.20
2013,04,23,10,36,10.20
2013,04,23,10,37,10.20
2013,04,23,10,38,10.30
2013,04,23,10,39,10.30
2013,04,23,10,40,10.40
2013,04,23,10,41,10.40
2013,04,23,10,42,10.50
2013,04,23,10,43,10.50
2013,04,23,10,44,10.60
2013,04,23,10,45,10.60
2013,04,23,10,46,10.70
2013,04,23,10,47,10.70
2013,04,23,10,48,10.70
2013,04,23,10,49,10.70
2013,04,23,10,50,10.70
2013,04,23,10,51,10.70
2013,04,23,10,52,10.70
2013,04,23,10,53,10.70
2013,04,23,10,54,10.80
2013,04,23,10,55,10.80
2013,04,23,10,56,10.80
2013,04,23,10,57,10.80
2013,04,23,10,58,10.70
2013,04,23,10,59,10.70
2013,04,23,11,00,10.80
2013,04,23,11,01,10.80
2013,04,23,11,02,10.80
2013,04,23,11,03,10.80
2013,04,23,11,04,10.80
2013,04,23,11,05,10.80
2013,04,23,11,06,10.90
2013,04,23,11,07,10.90
2013,04,23,11,08,10.80
2013,04,23,11,09,10.80
2013,04,23,11,10,10.70
2013,04,23,11,11,10.70
2013,04,23,11,12,10.70
2013,04,23,11,13,10.60
2013,04,23,11,14,10.50
2013,04,23,11,15,10.40
2013,04,23,11,16,10.30
2013,04,23,11,17,10.30
2013,04,23,11,18,10.20
2013,04,23,11,19,10.20
2013,04,23,11,20,10.10
2013,04,23,11,21,10.10
2013,04,23,11,22,10.10
2013,04,23,11,23,10.10
2013,04,23,11,24,10.10
2013,04,23,11,25,10.00
2013,04,23,11,26,9.90
2013,04,23,11,27,9.90
2013,04,23,11,28,9.80
2013,04,23,11,29,9.80
2013,04,23,11,30,9.70
2013,04,23,11,31,9.70
2013,04,23,11,32,9.70
2013,04,23,11,33,9.60
2013,04,23,11,34,9.60
2013,04,23,11,35,9.60
2013,04,23,11,36,9.70
2013,04,23,11,37,9.80
2013,04,23,11,38,9.80
2013,04,23,11,39,9.80
2013,04,23,11,40,9.90
2013,04,23,11,41,10.00
2013,04,23,11,42,10.10
2013,04,23,11,43,10.20
2013,04,23,11,44,10.20
2013,04,23,11,45,10.10
2013,04,23,11,46,10.10
2013,04,23,11,47,10.20
2013,04,23,11,48,10.20
2013,04,23,11,49,10.10
2013,04,23,11,50,10.10
2013,04,23,11,51,10.10
2013,04,23,11,52,10.10
2013,04,23,11,53,10.20
2013,04,23,11,54,10.30
2013,04,23,11,55,10.30
2013,04,23,11,56,10.40
2013,04,23,11,57,10.30
2013,04,23,11,58,10.40
2013,04,23,11,59,10.40
2013,04,23,12,00,10.50
2013,04,23,12,01,10.40
2013,04,23,12,02,10.40
2013,04,23,12,03,10.50
2013,04,23,12,04,10.50
2013,04,23,12,05,10.50
2013,04,23,12,06,10.50
2013,04,23,12,07,10.40
2013,04,23,12,08,10.40
2013,04,23,12,09,10.40
2013,04,23,12,10,10.30
2013,04,23,12,11,10.30
2013,04,23,12,12,10.40
2013,04,23,12,13,10.50
2013,04,23,12,14,10.40
2013,04,23,12,15,10.40
2013,04,23,12,16,10.40
2013,04,23,12,17,10.50
2013,04,23,12,18,10.60
2013,04,23,12,19,10.70
2013,04,23,12,20,10.80
2013,04,23,12,21,10.80
2013,04,23,12,22,10.80
2013,04,23,12,23,10.80
2013,04,23,12,24,10.80
2013,04,23,12,25,10.80
2013,04,23,12,26,10.80
2013,04,23,12,27,10.80
2013,04,23,12,28,10.80
2013,04,23,12,29,10.90
2013,04,23,12,30,10.90
2013,04,23,12,31,10.90
2013,04,23,12,32,11.00
2013,04,23,12,33,11.00
2013,04,23,12,34,10.90
2013,04,23,12,35,10.90
2013,04,23,12,36,11.00
2013,04,23,12,37,11.00
2013,04,23,12,38,11.00
2013,04,23,12,39,11.00
2013,04,23,12,40,11.00
2013,04,23,12,41,11.00
2013,04,23,12,42,11.00
2013,04,23,12,43,11.10
2013,04,23,12,44,11.20
2013,04,23,12,45,11.30
2013,04,23,12,46,11.30
2013,04,23,12,47,11.30
2013,04,23,12,48,11.30
2013,04,23,12,49,11.30
2013,04,23,12,50,11.30
2013,04,23,12,51,11.30
2013,04,23,12,52,11.20
2013,04,23,12,53,11.10
2013,04,23,12,54,11.20
2013,04,23,12,55,11.20
2013,04,23,12,56,11.20
2013,04,23,12,57,11.20
2013,04,23,12,58,11.20
2013,04,23,12,59,11.10
2013,04,23,13,00,11.20
2013,04,23,13,01,11.20
2013,04,23,13,02,11.20
2013,04,23,13,03,11.30
2013,04,23,13,04,11.30
2013,04,23,13,05,11.40
2013,04,23,13,06,11.40
2013,04,23,13,07,11.40
2013,04,23,13,08,11.30
2013,04,23,13,09,11.20
2013,04,23,13,10,11.20
2013,04,23,13,11,11.20
2013,04,23,13,12,11.30
2013,04,23,13,13,11.40
2013,04,23,13,14,11.50
2013,04,23,13,15,11.50
2013,04,23,13,16,11.60
2013,04,23,13,17,11.60
2013,04,23,13,18,11.60
2013,04,23,13,19,11.50
2013,04,23,13,20,11.40
2013,04,23,13,21,11.30
2013,04,23,13,22,11.30
2013,04,23,13,23,11.30
2013,04,23,13,24,11.30
2013,04,23,13,25,11.30
2013,04,23,13,26,11.30
2013,04,23,13,27,11.40
2013,04,23,13,28,11.40
2013,04,23,13,29,11.30
2013,04,23,13,30,11.20
2013,04,23,13,31,11.20
2013,04,23,13,32,11.20
2013,04,23,13,33,11.20
2013,04,23,13,34,11.20
2013,04,23,13,35,11.20
2013,04,23,13,36,11.20
2013,04,23,13,37,11.20
2013,04,23,13,38,11.30
2013,04,23,13,39,11.40
2013,04,23,13,40,11.40
2013,04,23,13,41,11.50
2013,04,23,13,42,11.60
2013,04,23,13,43,11.70
2013,04,23,13,44,11.70
2013,04,23,13,45,11.70
2013,04,23,13,46,11.80
2013,04,23,13,47,11.80
2013,04,23,13,48,11.90
2013,04,23,13,49,11.90
2013,04,23,13,50,11.90
2013,04,23,13,51,11.90
2013,04,23,13,52,11.80
2013,04,23,13,53,11.90
2013,04,23,13,54,11.90
2013,04,23,13,55,11.90
2013,04,23,13,56,12.00
2013,04,23,13,57,12.00
2013,04,23,13,58,12.00
2013,04,23,13,59,11.90
2013,04,23,14,00,12.00
2013,04,23,14,01,12.10
2013,04,23,14,02,12.10
2013,04,23,14,03,12.10
2013,04,23,14,04,12.20
2013,04,23,14,05,12.20
2013,04,23,14,06,12.20
2013,04,23,14,07,12.20
2013,04,23,14,08,12.20
2013,04,23,14,09,12.30
2013,04,23,14,10,12.30
2013,04,23,14,11,12.30
2013,04,23,14,12,12.30
2013,04,23,14,13,12.30
2013,04,23,14,14,12.40
2013,04,23,14,15,12.50
2013,04,23,14,16,12.60
2013,04,23,14,17,12.70
2013,04,23,14,18,12.80
2013,04,23,14,19,12.80
2013,04,23,14,20,12.80
2013,04,23,14,21,12.90
2013,04,23,14,22,12.90
2013,04,23,14,23,13.00
2013,04,23,14,24,13.00
2013,04,23,14,25,13.10
2013,04,23,14,26,13.10
2013,04,23,14,27,13.10
2013,04,23,14,28,13.10
2013,04,23,14,29,13.10
2013,04,23,14,30,13.30
2013,04,23,14,31,13.30
2013,04,23,14,32,13.30
2013,04,23,14,33,13.40
2013,04,23,14,34,13.30
2013,04,23,14,35,13.30
2013,04,23,14,36,13.20
2013,04,23,14,37,13.20
2013,04,23,14,38,13.30
2013,04,23,14,39,13.20
2013,04,23,14,40,13.10
2013,04,23,14,41,13.00
2013,04,23,14,42,12.80
2013,04,23,14,43,12.70
2013,04,23,14,44,12.70
2013,04,23,14,45,12.60
2013,04,23,14,46,12.50
2013,04,23,14,47,12.50
2013,04,23,14,48,12.50
2013,04,23,14,49,12.50
2013,04,23,14,50,12.60
2013,04,23,14,51,12.60
2013,04,23,14,52,12.60
2013,04,23,14,53,12.60
2013,04,23,14,54,12.60
2013,04,23,14,55,12.60
2013,04,23,14,56,12.60
2013,04,23,14,57,12.60
2013,04,23,14,58,12.60
2013,04,23,14,59,12.50
2013,04,23,15,00,12.50
2013,04,23,15,01,12.50
2013,04,23,15,02,12.50
2013,04,23,15,03,12.60
2013,04,23,15,04,12.70
2013,04,23,15,05,12.70
2013,04,23,15,06,12.70
2013,04,23,15,07,12.70
2013,04,23,15,08,12.80
2013,04,23,15,09,12.80
2013,04,23,15,10,12.80
2013,04,23,15,11,12.90
2013,04,23,15,12,12.90
2013,04,23,15,13,13.00
2013,04,23,15,14,13.00
2013,04,23,15,15,12.90
2013,04,23,15,16,13.00
2013,04,23,15,17,13.00
2013,04,23,15,18,12.90
2013,04,23,15,19,12.90
2013,04,23,15,20,12.90
2013,04,23,15,21,13.00
2013,04,23,15,22,13.00
2013,04,23,15,23,13.10
2013,04,23,15,24,13.10
2013,04,23,15,25,13.10
2013,04,23,15,26,13.10
2013,04,23,15,27,13.10
2013,04,23,15,28,13.10
2013,04,23,15,29,13.10
2013,04,23,15,30,13.20
2013,04,23,15,31,13.20
2013,04,23,15,32,13.30
2013,04,23,15,33,13.30
2013,04,23,15,34,13.40
2013,04,23,15,35,13.40
2013,04,23,15,36,13.50
2013,04,23,15,37,13.60
2013,04,23,15,38,13.70
2013,04,23,15,39,13.60
2013,04,23,15,40,13.60
2013,04,23,15,41,13.60
2013,04,23,15,42,13.70
2013,04,23,15,43,13.70
2013,04,23,15,44,13.70
2013,04,23,15,45,13.70
2013,04,23,15,46,13.60
2013,04,23,15,47,13.60
2013,04,23,15,48,13.70
2013,04,23,15,49,13.70
2013,04,23,15,50,13.70
2013,04,23,15,51,13.70
2013,04,23,15,52,13.70
2013,04,23,15,53,13.70
2013,04,23,15,54,13.70
2013,04,23,15,55,13.60
2013,04,23,15,56,13.60
2013,04,23,15,57,13.50
2013,04,23,15,58,13.60
2013,04,23,15,59,13.60
2013,04,23,16,00,13.50
2013,04,23,16,01,13.60
2013,04,23,16,02,13.70
2013,04,23,16,03,13.80
2013,04,23,16,04,13.90
2013,04,23,16,05,14.00
2013,04,23,16,06,14.00
2013,04,23,16,07,13.90
2013,04,23,16,08,13.90
2013,04,23,16,09,14.00
2013,04,23,16,10,13.90
2013,04,23,16,11,13.90
2013,04,23,16,12,13.90
2013,04,23,16,13,13.80
2013,04,23,16,14,13.90
2013,04,23,16,15,14.00
2013,04,23,16,16,14.10
2013,04,23,16,17,14.20
2013,04,23,16,18,14.30
2013,04,23,16,19,14.40
2013,04,23,16,20,14.50
2013,04,23,16,21,14.60
2013,04,23,16,22,14.70
2013,04,23,16,23,14.80
2013,04,23,16,24,14.80
2013,04,23,16,25,14.90
2013,04,23,16,26,14.90
2013,04,23,16,27,14.80
2013,04,23,16,28,14.60
2013,04,23,16,29,14.50
2013,04,23,16,30,14.40
2013,04,23,16,31,14.30
2013,04,23,16,32,14.30
2013,04,23,16,33,14.40
2013,04,23,16,34,14.40
2013,04,23,16,35,14.30
2013,04,23,16,36,14.20
2013,04,23,16,37,14.20
2013,04,23,16,38,14.20
2013,04,23,16,39,14.20
2013,04,23,16,40,14.20
2013,04,23,16,41,14.20
2013,04,23,16,42,14.10
2013,04,23,16,43,14.10
2013,04,23,16,44,14.10
2013,04,23,16,45,14.10
2013,04,23,16,46,14.00
2013,04,23,16,47,14.00
2013,04,23,16,48,14.00
2013,04,23,16,49,14.00
2013,04,23,16,50,14.00
2013,04,23,16,51,14.00
2013,04,23,16,52,14.00
2013,04,23,16,53,14.00
2013,04,23,16,54,13.90
2013,04,23,16,55,13.90
2013,04,23,16,56,14.00
2013,04,23,16,57,14.00
2013,04,23,16,58,14.10
2013,04,23,16,59,14.20
2013,04,23,17,00,14.20
2013,04,23,17,01,14.30
2013,04,23,17,02,14.30
2013,04,23,17,03,14.30
2013,04,23,17,04,14.40
2013,04,23,17,05,14.40
2013,04,23,17,06,14.40
2013,04,23,17,07,14.50
2013,04,23,17,08,14.60
2013,04,23,17,09,14.70
2013,04,23,17,10,14.80
2013,04,23,17,11,14.80
2013,04,23,17,12,15.00
2013,04,23,17,13,15.00
2013,04,23,17,14,15.00
2013,04,23,17,15,15.00
2013,04,23,17,16,15.00
2013,04,23,17,17,14.90
2013,04,23,17,18,14.90
2013,04,23,17,19,14.80
2013,04,23,17,20,14.70
2013,04,23,17,21,14.70
2013,04,23,17,22,14.70
2013,04,23,17,23,14.70
2013,04,23,17,24,14.70
2013,04,23,17,25,14.70
2013,04,23,17,26,14.70
2013,04,23,17,27,14.70
2013,04,23,17,28,14.70
2013,04,23,17,29,14.80
2013,04,23,17,30,14.80
2013,04,23,17,31,14.80
2013,04,23,17,32,14.90
2013,04,23,17,33,15.00
2013,04,23,17,34,15.00
2013,04,23,17,35,15.10
2013,04,23,17,36,15.20
2013,04,23,17,37,15.20
2013,04,23,17,38,15.30
2013,04,23,17,39,15.40
2013,04,23,17,40,15.50
2013,04,23,17,41,15.60
2013,04,23,17,42,15.70
2013,04,23,17,43,15.80
2013,04,23,17,44,15.80
2013,04,23,17,45,15.80